Regional Weather Roundup
Issued by NWS

Home | Current Version | Previous Version | Text Only | Print | Product List | Glossary On
Versions: 1 2 3 4 5 6 7 8 9 10 11 12 13 14 15 16 17 18 19 20 21 22 23 24 25 26 27 28 29 30 31 32 33 34 35 36 37 38 39 40 41 42 43 44 45 46 47 48 49 50
862
ASUS43 KOAX 240003
RWRNE

WEATHER ROUNDUP FOR NEBRASKA
NATIONAL WEATHER SERVICE OMAHA NE
700 PM CDT WED MAY 23 2018

NOTES: SATELLITE DATA IS BEING USED TO AUGMENT CLOUD COVER ABOVE
       12000 FEET.
       "FAIR" INDICATES FEW OR NO CLOUDS BELOW 12,000 FEET WITH NO
       SIGNIFICANT WEATHER AND/OR OBSTRUCTIONS TO VISIBILITY.


NEZ001>004-019>022-054>056-240100-
NEBRASKA PANHANDLE

CITY           SKY/WX    TMP DP  RH WIND       PRES   REMARKS
SCOTTSBLUFF    MOSUNNY   79  57  46 SE13      29.88F
6HR MIN TEMP:  74; 6HR MAX TEMP:  80;

ALLIANCE       PTSUNNY   72  59  63 S7        29.90F
6HR MIN TEMP:  72; 6HR MAX TEMP:  79;

CHADRON        PTSUNNY   68  52  56 NW15G28   29.87S
6HR MIN TEMP:  66; 6HR MAX TEMP:  80;

GORDON         FAIR      81  56  41 S7        29.89S
6HR MIN TEMP:  71; 6HR MAX TEMP:  82;

KIMBALL        SUNNY     77  41  27 S9        29.94S
SIDNEY         PTSUNNY   71  58  63 E5        29.91F
6HR MIN TEMP:  65; 6HR MAX TEMP:  83; 6HR PCP: TRACE;

$$

NEZ057>060-069>072-079>082-240100-
SOUTHWEST NEBRASKA

CITY           SKY/WX    TMP DP  RH WIND       PRES   REMARKS
NORTH PLATTE   MOSUNNY   82  60  47 S9G25     29.90S
6HR MIN TEMP:  78; 6HR MAX TEMP:  85;

IMPERIAL       PTSUNNY   85  55  35 SE22G31   29.87F
6HR MIN TEMP:  79; 6HR MAX TEMP:  88;

LEXINGTON      MOSUNNY   81  63  53 SE20      29.94S
MCCOOK         PTSUNNY   84  57  39 S15G24    29.90R
6HR MIN TEMP:  79; 6HR MAX TEMP:  86;

OGALLALA       PTSUNNY   84  52  32 SE16G23   29.88S
$$

NEZ005>010-023>029-035>040-094-240100-
NORTH CENTRAL NEBRASKA

CITY           SKY/WX    TMP DP  RH WIND       PRES   REMARKS
VALENTINE      MOSUNNY   83  60  45 SE17G29   29.89S
6HR MIN TEMP:  80; 6HR MAX TEMP:  86;

AINSWORTH      MOSUNNY   81  62  52 S21G28    29.91F
BROKEN BOW     MOSUNNY   82  62  50 SE23G31   29.94R
6HR MIN TEMP:  76; 6HR MAX TEMP:  86;

O`NEILL        PTSUNNY   79  62  56 S12G25    29.95F
ORD            PTSUNNY   77  67  71 SE5       29.94S
6HR MIN TEMP:  67; 6HR MAX TEMP:  83; 6HR PCP:  0.06;

THEDFORD       PTSUNNY   84  55  37 SE16G23   29.92S
$$

NEZ041-046>049-061>064-073>077-083>087-240100-
SOUTH CENTRAL NEBRASKA

CITY           SKY/WX    TMP DP  RH WIND       PRES   REMARKS
GRAND ISLAND   CLOUDY    81  62  52 S13G22    29.97R
6HR MIN TEMP:  78; 6HR MAX TEMP:  88; 6HR PCP: TRACE;

AURORA         CLOUDY    84  56  38 S13G20    29.97R
HASTINGS       CLOUDY    82  62  50 MISG      29.97S
6HR MIN TEMP:  82; 6HR MAX TEMP:  88;

HEBRON         CLOUDY    87  61  42 S15G22    29.97R
HOLDREGE       CLOUDY    78  62  57 SE22G31   29.96F
KEARNEY        CLOUDY    77  62  59 S10       29.97S
YORK           CLOUDY    86  57  37 S16       29.97R
$$

NEZ011>018-030>034-042>045-240100-
NORTHEAST NEBRASKA

CITY           SKY/WX    TMP DP  RH WIND       PRES   REMARKS
NORFOLK        MOSUNNY   84  57  39 SE12      29.93S
6HR MIN TEMP:  84; 6HR MAX TEMP:  90;

ALBION         CLOUDY    74  65  74 NE7       29.97S
BLAIR          SUNNY     87  59  37 SE10G18   29.98S
COLUMBUS       MOSUNNY   89  59  36 S15       29.95F
FREMONT        PTSUNNY   90  57  33 SE15G21   29.97S
TEKAMAH        SUNNY     87  63  44 SE15      29.96S
6HR MIN TEMP:  85; 6HR MAX TEMP:  89;

WAYNE          SUNNY     86  55  34 S16       29.95S
$$

NEZ050>053-065>068-078-088>093-240100-
SOUTHEAST NEBRASKA

CITY           SKY/WX    TMP DP  RH WIND       PRES   REMARKS
LINCOLN        MOSUNNY   87  60  40 S15G30    29.97S
6HR MIN TEMP:  87; 6HR MAX TEMP:  91;

OMAHA EPPLEY   MOSUNNY   90  60  36 S22G29    29.97R
6HR MIN TEMP:  87; 6HR MAX TEMP:  92;

BEATRICE       SUNNY     87  61  41 S18       29.98S
FALLS CITY     LGT RAIN  87  60  40 S16G25    29.99S
6HR MIN TEMP:  87; 6HR MAX TEMP:  91; 6HR PCP: TRACE;

NEBRASKA CITY  SUNNY     87  60  40 S15G22    29.99S
PLATTSMOUTH    SUNNY     86  61  42 SE12      29.99R
$$

NEZ044-045-051>053-067-240100-
OMAHA AREA

CITY           SKY/WX    TMP DP  RH WIND       PRES   REMARKS
OMAHA EPPLEY   MOSUNNY   90  60  36 S22G29    29.97R
6HR MIN TEMP:  87; 6HR MAX TEMP:  92;

BLAIR          SUNNY     87  59  37 SE10G18   29.98S
FREMONT        PTSUNNY   90  57  33 SE15G21   29.97S
MILLARD        SUNNY     88  64  45 SE10      29.97S
OFFUTT AFB     SUNNY     87  64  44 SE12      29.97R
PLATTSMOUTH    SUNNY     86  61  42 SE12      29.99R
WAHOO          FAIR      90  51  26 S23       29.97S
$$




USA.gov is the U.S. government's official web portal to all federal, state and local government web resources and services.